Location: Dodge City Community College Clyde Tombaugh Astronomy Center
(37.7756°N, 100.0412°W)
Time: 01:47:57
(UTC+00:00)

Cosmos 2228 Rocket - Pass Details

Date: 08 July 2022
Orbit: 618 x 651 km, 82.5° (Epoch: 09 August)

Event Time Altitude Azimuth Distance (km) Brightness Sun altitude
Rises 09:02:59 0° 3° (N) 2,925 7.5 -21.6°
Reaches altitude 10° 09:05:25 10° 14° (NNE) 2,018 6.7 -21.4°
Maximum altitude 09:09:26 32° 77° (ENE) 1,092 4.7 -20.9°
Drops below altitude 10° 09:13:28 10° 141° (SE) 2,024 5.5 -20.4°
Enters shadow 09:13:51 - 144° (SE) 2,162 5.7 -20.4°
